Regional Weather Roundup
Issued by NWS

Home | Current Version | Previous Version | Text Only | Print | Product List | Glossary On
Versions: 1 2 3 4 5 6 7 8 9 10 11 12 13 14 15 16 17 18 19 20 21 22 23 24 25 26 27 28
000
ASUS45 KPSR 220610
RWRAZ

ARIZONA HOURLY REGIONAL WEATHER ROUNDUP
NATIONAL WEATHER SERVICE PHOENIX AZ
1100 PM MST TUE NOV 21 2017

NOTE: FAIR INDICATES FEW OR NO CLOUDS BELOW 12,000 FEET WITH NO
SIGNIFICANT WEATHER AND/OR OBSTRUCTIONS TO VISIBILITY.

AZZ001>003-036-220700-
NORTHWEST ARIZONA

CITY           SKY/WX    TMP DP  RH WIND       PRES   REMARKS
BULLHEAD CITY  MOCLDY    73  12   9 N22       30.11S
KINGMAN        PTCLDY    52  21  29 E9        30.27S
6HR MIN TEMP:  52; 6HR MAX TEMP:  68;

$$

AZZ004>008-015-016-018-220700-
NORTH CENTRAL ARIZONA

CITY           SKY/WX    TMP DP  RH WIND       PRES   REMARKS
GRAND CANYON   PTCLDY    34  22  61 NE3       30.44R
6HR MIN TEMP:  34; 6HR MAX TEMP:  57;

WILLIAMS       PTCLDY    46  27  46 S6        30.41S
PRESCOTT       CLEAR     46  29  51 N5        30.33R
6HR MIN TEMP:  45; 6HR MAX TEMP:  70;

FLAGSTAFF      CLEAR     45  26  47 E8        30.43S
6HR MIN TEMP:  38; 6HR MAX TEMP:  55;

PAYSON         PTCLDY    55  23  28 SE3       30.34R
PAGE           CLEAR     48  19  31 CALM      30.37R
6HR MIN TEMP:  47; 6HR MAX TEMP:  57;

$$

AZZ009>014-017-220700-
NORTHEAST ARIZONA

CITY           SKY/WX    TMP DP  RH WIND       PRES   REMARKS
WINSLOW        PTCLDY    40  16  37 SE3       30.37S
6HR MIN TEMP:  40; 6HR MAX TEMP:  63;

SAINT JOHNS    PTCLDY    43  19  38 S5        30.38S
6HR MIN TEMP:  41; 6HR MAX TEMP:  60;

WINDOW ROCK    CLEAR     32  21  64 CALM      30.43F
6HR MIN TEMP:  31; 6HR MAX TEMP:  59;

SHOW LOW       PTCLDY    37  14  38 CALM      30.42S
$$

AZZ540-542>544-546-548-220700-
GREATER PHOENIX AREA

CITY           SKY/WX    TMP DP  RH WIND       PRES   REMARKS
PHOENIX        PTCLDY    64  33  31 E6        30.06F
6HR MIN TEMP:  64; 6HR MAX TEMP:  77;

BUCKEYE        CLEAR     57  19  23 CALM      30.09R
LUKE AFB       CLEAR     62  32  33 CALM      30.07R
6HR MIN TEMP:  59; 6HR MAX TEMP:  76;

DEER VALLEY    CLEAR     64  24  21 E7        30.08S
6HR MIN TEMP:  64; 6HR MAX TEMP:  77;

SCOTTSDALE     CLEAR     62  31  31 CALM      30.10R
6HR MIN TEMP:  62; 6HR MAX TEMP:  76;

MESA-GATEWAY   PTCLDY    55  25  30 E7        30.10S
$$

AZZ539-553-220700-
SOUTHWEST MARICOPA COUNTY AND PINAL COUNTY

CITY           SKY/WX    TMP DP  RH WIND       PRES   REMARKS
CASA GRANDE    NOT AVBL
$$

AZZ503-504-507>509-220700-
SOUTHEAST ARIZONA

CITY           SKY/WX    TMP DP  RH WIND       PRES   REMARKS
TUCSON         PTCLDY    56  22  26 SE3       30.17R
6HR MIN TEMP:  56; 6HR MAX TEMP:  74;

DAVIS-MONTHAN  CLEAR     54  21  28 SE6       30.15R
6HR MIN TEMP:  54; 6HR MAX TEMP:  72;

NOGALES        PTCLDY    51  22  31 E3        30.20R
6HR MIN TEMP:  50; 6HR MAX TEMP:  73;

SIERRA VISTA   PTCLDY    55  16  21 S6        30.26S
6HR MIN TEMP:  55; 6HR MAX TEMP:  69;

DOUGLAS        PTCLDY    48  16  27 N6        30.23R
6HR MIN TEMP:  48; 6HR MAX TEMP:  70;

SAFFORD        PTCLDY    54  12  18 NE6       30.19R
6HR MIN TEMP:  52; 6HR MAX TEMP:  72;

$$

AZZ532-220700-
SOUTHWEST ARIZONA

CITY           SKY/WX    TMP DP  RH WIND       PRES   REMARKS
YUMA           MOCLDY    70  17  13 NW6       30.05S
6HR MIN TEMP:  69; 6HR MAX TEMP:  81;

$$

CAZ041-043-047-048-061-525>527-560>570-220700-
SOUTHERN CALIFORNIA

CITY           SKY/WX    TMP DP  RH WIND       PRES   REMARKS
DOWNTOWN L.A.  CLEAR     66  49  54 CALM      30.03F
6HR MIN TEMP:  65; 6HR MAX TEMP:  79;

L.A. AIRPORT   CLEAR     70  52  52 CALM      30.03F
6HR MIN TEMP:  65; 6HR MAX TEMP:  73;

SAN DIEGO      CLEAR     67  43  41 CALM      30.04S
6HR MIN TEMP:  66; 6HR MAX TEMP:  76;

BURBANK        CLEAR     77  27  15 W6        30.06S
6HR MIN TEMP:  74; 6HR MAX TEMP:  89;

ONTARIO        PTCLDY    70  37  29 E3        30.08R
6HR MIN TEMP:  66; 6HR MAX TEMP:  88;

RIVERSIDE      CLEAR     71  34  25 NE6       30.08R
6HR MIN TEMP:  71; 6HR MAX TEMP:  90;

PALM SPRINGS   CLEAR     65  37  35 W5        30.12R
6HR MIN TEMP:  64; 6HR MAX TEMP:  84;

EL CENTRO NAS  PTCLDY    60  30  32 CALM      30.08R
6HR MIN TEMP:  58; 6HR MAX TEMP:  81;

IMPERIAL       PTCLDY    64  36  35 S3        30.06R
6HR MIN TEMP:  61; 6HR MAX TEMP:  83;

BLYTHE         MOCLDY    63  12  13 N8        30.08S
6HR MIN TEMP:  63; 6HR MAX TEMP:  76;

$$

NVZ020-UTZ003-220700-
SOUTHERN NEVADA-UTAH

CITY           SKY/WX    TMP DP  RH WIND       PRES   REMARKS
LAS VEGAS      MOCLDY    60  27  28 CALM      30.24R
6HR MIN TEMP:  60; 6HR MAX TEMP:  71;

SALT LAKE CITY MOCLDY    50  40  68 SE7       30.37S
6HR MIN TEMP:  49; 6HR MAX TEMP:  58;

$$

NMZ009-TXZ055-220700-
NEW MEXICO-WEST TEXAS

CITY           SKY/WX    TMP DP  RH WIND       PRES   REMARKS
ALBUQUERQUE    CLOUDY    50  28  42 E12       30.38S
6HR MIN TEMP:  50; 6HR MAX TEMP:  63;

EL PASO        PTCLDY    57  20  23 VRB5      30.34R
6HR MIN TEMP:  53; 6HR MAX TEMP:  71;

$$


........................KEY........................
SKY/WX - SKY CONDITION/WEATHER
TMP    - TEMPERATURE IN FAHRENHEIT
DP     - DEW POINT IN FAHRENHEIT
RH     - RELATIVE HUMIDITY IN PERCENT
WIND   - DIRECTION AND SPEED IN MILES PER HOUR (MPH)
VRB    - VARIABLE WIND DIRECTION
PRES   - MEAN SEA LEVEL PRESSURE IN INCHES OF MERCURY
         F - FALLING PRESSURE   R - RISING PRESSURE
         S - STEADY PRESSURE
VSB    - VISIBILITY IN MILES
HX     - HEAT INDEX IN FAHRENHEIT
WCI    - WIND CHILL INDEX IN FAHRENHEIT
TC     - TEMPERATURE IN CELSIUS WHICH IS ALSO KNOWN AS
         TEMPERATURE IN CENTIGRADE
AFB    - AIR FORCE BASE
         LUKE AFB IS LUKE AIR FORCE BASE
         DAVIS-MONTHAN IS DAVIS-MONTHAN AIR FORCE BASE
NAS    - NAVAL AIR STATION
         EL CENTRO NAS IS EL CENTRO NAVAL AIR STATION
N/A    - NOT AVAILABLE





USA.gov is the U.S. government's official web portal to all federal, state and local government web resources and services.